Athens, GA

6:40 AM EDT on August 27, 2016 (GMT -0400)
Athens / Epps

Weather History for KAHN - December, 2012

Change the Weather History Date:

Thursday, December 20, 2012

  Actual Average Record
Temperature  
Mean Temperature 47 °F 44 °F  
Max Temperature 57 °F 55 °F 76 °F (1967)
Min Temperature 37 °F 34 °F 13 °F (1981)
Degree Days  
Heating Degree Days 18 21  
Month to date heating degree days 221 375  
Since 1 July heating degree days 745 855  
Moisture  
Dew Point 46 °F    
Average Humidity 79    
Maximum Humidity 100    
Minimum Humidity 57    
Precipitation  
Precipitation 0.77 in 0.12 in 1.42 in (1905)
Month to date precipitation 3.03 2.43  
Year to date precipitation 34.53 45.03  
Snow  
Snow 0.00 in 0.00 in 0.00 in (2001)
Month to date snowfall 0.0 0.0  
Since 1 July snowfall 0.0 0.0  
Snow Depth -    
Sea Level Pressure  
Sea Level Pressure 29.83 in    
Wind  
Wind Speed 8 mph (South)    
Max Wind Speed 29 mph    
Max Gust Speed 45 mph    
Visibility 7 miles    
Events Rain    
T = Trace of Precipitation, MM = Missing Value Source: NWS Daily Summary

Daily Weather History Graph

Daily Weather History Graph

Search for Another Location

Airport or City:

Trip Planner

Search our weather history database for the weather conditions in past years. The results will help you decide how hot, cold, wet, or windy it might be!

Date:

Astronomy

Dec. 20, 2012 Rise Set
Actual Time 7:34 AM EST 5:28 PM EST
Civil Twilight 7:06 AM EST 5:55 PM EST
Nautical Twilight 6:35 AM EST 6:27 PM EST
Astronomical Twilight 6:04 AM EST 6:57 PM EST
Moon 12:32 PM EST (12/20) 12:34 AM EST (12/20)
Length of Visible Light 10h 49m
Length of Day
9h 53m
First Quarter, 55% of the Moon is Illuminated
Dec 20
First Quarter
Dec 28
Full
Jan 4
Last Quarter
Jan 11
New
Jan 18
First Quarter

Hourly Weather History & Observations

Time (EST) Temp. Windchill Dew Point Humidity Pressure Visibility Wind Dir Wind Speed Gust Speed Precip Events Conditions
12:51 AM 46.0 °F 43.9 °F 39.9 °F 79% 30.06 in 10.0 mi SE 4.6 mph - N/A   Clear
1:51 AM 44.1 °F 42.5 °F 39.9 °F 85% 30.05 in 10.0 mi East 3.5 mph - N/A   Clear
2:51 AM 43.0 °F - 37.0 °F 80% 30.07 in 10.0 mi Calm Calm - N/A   Clear
3:51 AM 39.0 °F 35.7 °F 36.0 °F 89% 30.07 in 10.0 mi ENE 4.6 mph - N/A   Clear
4:51 AM 42.1 °F 39.2 °F 39.0 °F 89% 30.02 in 10.0 mi SE 4.6 mph - N/A   Clear
5:51 AM 44.1 °F 41.5 °F 39.0 °F 82% 30.01 in 10.0 mi ESE 4.6 mph - N/A   Partly Cloudy
6:51 AM 45.0 °F 41.8 °F 39.9 °F 82% 30.01 in 10.0 mi East 5.8 mph - N/A   Overcast
7:51 AM 46.9 °F - 39.0 °F 74% 29.99 in 10.0 mi SE 4.6 mph - N/A   Overcast
8:51 AM 50.0 °F - 39.9 °F 68% 29.95 in 10.0 mi ESE 6.9 mph - N/A   Overcast
9:34 AM 48.2 °F - 44.6 °F 87% 29.97 in 2.5 mi ESE 10.4 mph - 0.03 in Rain Rain
9:41 AM 48.2 °F - 42.8 °F 82% 29.96 in 5.0 mi Variable 6.9 mph - 0.04 in Rain Light Rain
9:49 AM 48.2 °F - 44.6 °F 87% 29.95 in 10.0 mi East 5.8 mph - 0.04 in Rain Light Rain
9:51 AM 48.0 °F - 45.0 °F 89% 29.96 in 10.0 mi ESE 6.9 mph - 0.04 in Rain Light Rain
9:59 AM 48.2 °F - 44.6 °F 87% 29.95 in 10.0 mi ESE 5.8 mph - 0.00 in   Overcast
10:51 AM 48.9 °F - 46.0 °F 90% 29.94 in 5.0 mi SE 5.8 mph - 0.00 in Rain Light Rain
11:51 AM 48.2 °F - 48.2 °F 100% 29.85 in 4.0 mi East 5.8 mph - N/A   Overcast
12:25 PM 50.0 °F - 48.2 °F 94% 29.82 in 3.0 mi Calm Calm - N/A   Overcast
12:51 PM 50.0 °F - 48.9 °F 96% 29.79 in 2.5 mi East 5.8 mph - 0.00 in Rain Light Rain
1:10 PM 51.8 °F - 51.8 °F 100% 29.76 in 1.5 mi SE 9.2 mph - 0.05 in Rain Rain
1:18 PM 53.6 °F - 51.8 °F 94% 29.75 in 3.0 mi SSE 8.1 mph 16.1 mph 0.06 in Rain Light Rain
1:29 PM 53.6 °F - 51.8 °F 94% 29.74 in 1.8 mi SSE 10.4 mph 18.4 mph 0.10 in Rain Rain
1:47 PM 53.6 °F - 53.6 °F 100% 29.72 in 1.0 mi SSE 10.4 mph 17.3 mph 0.22 in Rain Heavy Rain
1:51 PM 54.0 °F - 53.1 °F 97% 29.73 in 1.0 mi South 6.9 mph 17.3 mph 0.25 in Rain Heavy Rain
2:10 PM 53.6 °F - 53.6 °F 100% 29.70 in 1.5 mi South 8.1 mph - 0.13 in Rain Rain
2:12 PM 53.6 °F - 53.6 °F 100% 29.71 in 2.5 mi SSE 8.1 mph - 0.13 in Rain Light Rain
2:20 PM 53.6 °F - 53.6 °F 100% 29.70 in 5.0 mi South 6.9 mph - 0.14 in Rain Light Rain
2:49 PM 55.4 °F - 53.6 °F 94% 29.67 in 8.0 mi SSE 9.2 mph 16.1 mph 0.15 in Rain Light Rain
2:51 PM 55.0 °F - 54.0 °F 96% 29.68 in 9.0 mi SSE 9.2 mph 16.1 mph 0.15 in Rain Light Rain
3:31 PM 55.4 °F - 55.4 °F 100% 29.65 in 1.8 mi South 8.1 mph 20.7 mph 0.05 in Rain Rain
3:51 PM 55.4 °F - 55.4 °F 100% 29.66 in 2.5 mi WSW 6.9 mph 16.1 mph N/A Rain Light Rain
3:57 PM 55.4 °F - 55.4 °F 100% 29.67 in 1.8 mi SW 9.2 mph 16.1 mph 0.01 in Rain Light Rain
4:08 PM 55.4 °F - 55.4 °F 100% 29.69 in 1.0 mi West 9.2 mph 17.3 mph 0.07 in Rain Heavy Rain
4:33 PM 57.2 °F - 55.4 °F 94% 29.68 in 2.0 mi SW 6.9 mph - 0.16 in Rain Light Rain
4:36 PM 57.2 °F - 55.4 °F 94% 29.68 in 2.5 mi Variable 5.8 mph - 0.16 in Rain Light Rain
4:41 PM 57.2 °F - 55.4 °F 94% 29.67 in 3.0 mi SSW 6.9 mph - 0.17 in Rain Light Rain
4:51 PM 57.0 °F - 55.9 °F 96% 29.67 in 10.0 mi SSW 5.8 mph - 0.17 in   Overcast
5:34 PM 57.2 °F - 55.4 °F 94% 29.69 in 9.0 mi West 8.1 mph - N/A   Overcast
5:41 PM 55.4 °F - 55.4 °F 100% 29.70 in 9.0 mi WNW 11.5 mph 17.3 mph N/A   Overcast
5:51 PM 55.0 °F - 52.0 °F 89% 29.71 in 10.0 mi West 10.4 mph 23.0 mph N/A   Overcast
6:19 PM 51.8 °F - 44.6 °F 76% 29.73 in 10.0 mi West 13.8 mph 27.6 mph N/A   Scattered Clouds
6:51 PM 51.1 °F - 43.0 °F 74% 29.75 in 10.0 mi West 10.4 mph 18.4 mph N/A   Clear
7:51 PM 50.0 °F - 39.9 °F 68% 29.77 in 10.0 mi West 20.7 mph 32.2 mph N/A   Mostly Cloudy
8:51 PM 43.0 °F 35.1 °F 28.0 °F 56% 29.83 in 10.0 mi West 17.3 mph 32.2 mph N/A   Partly Cloudy
9:51 PM 42.1 °F 34.9 °F 28.9 °F 60% 29.84 in 10.0 mi West 13.8 mph 20.7 mph N/A   Clear
10:51 PM 42.1 °F 35.2 °F 30.0 °F 62% 29.84 in 10.0 mi West 12.7 mph 23.0 mph N/A   Partly Cloudy
11:51 PM 43.0 °F 37.7 °F 30.9 °F 62% 29.86 in 10.0 mi West 9.2 mph 16.1 mph N/A   Overcast